{"data":{"norad_id":48131,"epoch":"2026-05-25T00:59:56.252256Z","epoch_age_seconds":70917,"freshness":"FRESH","line1":"1 48131U 21027AR  26145.04162329 -.00000316  00000+0  15940-5 0  9998","line2":"2 48131  53.1593 157.7295 0001370  91.8267 268.2891 15.31707731284370","mean_motion":15.31707731,"eccentricity":0.000137,"inclination_deg":53.1593,"raan_deg":157.7295,"arg_perigee_deg":91.8267,"mean_anomaly_deg":268.2891,"bstar":1.594e-6,"rev_number":28437,"period_min":94.012713447615,"perigee_km":469.77865662277,"apogee_km":471.65524260496,"semimajor_km":6848.8539496139,"source":"CELESTRAK","updated_at":"2026-05-25T13:38:16.648269Z"}}